Location: Campbell River
(50.0170°N, 125.2500°W)
Time: 18:07:48
(UTC-07:00)

Daily predictions for brighter satellites

Satellite Brightness Start Highest point End
(mag) Time Altitude Azimuth Time Altitude Azimuth Time Altitude Azimuth
Cosmos 1634 Rocket 4.1 21:57:17 10° N 22:03:28 69° ENE 22:09:38 10° SSE
SL-16 R/B 3.7 21:58:30 10° WSW 22:03:51 43° NW 22:09:16 10° NNE
SeaSat 1 2.6 21:59:18 10° SSE 22:04:14 78° WSW 22:09:13 10° NNW
YAOGAN 6 2.8 22:04:17 10° SSE 22:07:59 65° ENE 22:11:43 10° N
SL-08 RB Rocket 4.3 22:04:06 10° SE 22:08:25 44° ENE 22:12:43 10° N
Cosmos 1953 Rocket 4.2 22:05:02 10° SSE 22:09:08 39° E 22:13:18 10° NNE
Cosmos-2242 4.2 22:07:14 10° N 22:11:08 29° ENE 22:15:00 10° SE
CZ-4B R/B 3.8 22:08:02 10° NNE 22:13:01 52° E 22:18:05 10° S
ISS -2.9 22:10:33 10° SW 22:13:38 41° SSE 22:16:45 10° E
Cosmos 1515 3.7 22:11:21 10° S 22:15:13 82° E 22:19:06 10° NNE
Cosmos 1190 Rocket 4.3 22:12:32 10° S 22:17:39 50° ESE 22:22:48 10° NNE
Cosmos 2263 4.3 22:14:30 10° NNW 22:20:09 85° WSW 22:25:48 10° SSE
CZ-4C R/B 3.9 22:17:06 10° SE 22:21:06 48° ENE 22:24:56 10° N
H-2A R/B 2.8 22:16:47 10° SE 22:21:22 38° ENE 22:26:06 10° N
Cosmos 2279 Rocket 4.2 22:18:04 10° N 22:24:16 60° ENE 22:30:26 10° SSE
Atlas Centaur 2 4.3 22:22:44 10° SW 22:27:19 17° S 22:31:50 11° SE
Cosmos 2346 Rocket 4.5 22:22:21 10° S 22:28:31 76° E 22:34:39 10° NNE
SPOT 1/Viking Rocket 3.6 22:25:10 10° SSE 22:30:20 82° WSW 22:35:31 10° NNW
Cosmos 1953 3.2 22:28:38 10° N 22:32:22 36° ENE 22:35:30 13° SE
Cosmos 1603 4.5 22:27:34 10° SW 22:33:05 57° NW 22:38:38 10° NNE
CZ-4 R/B 4.1 22:28:51 10° NNE 22:33:47 56° E 22:38:43 10° S
Cosmos 1066 Rocket 4.3 22:28:55 10° S 22:34:39 82° E 22:40:32 10° NNE
Cosmos 676 Rocket 4.5 22:29:45 10° S 22:34:46 44° ESE 22:39:49 10° NE
Lacrosse 5 rocket 3.1 22:31:39 10° WNW 22:35:19 34° N 22:39:11 10° NE
Meteor 1-22 Rocket 4.3 22:30:09 10° NNW 22:35:44 81° W 22:41:32 10° S
Landsat 7 4.0 22:32:57 12° SSE 22:37:19 62° ENE 22:42:02 10° N
Cosmos 1758 Rocket 3.5 22:38:30 10° S 22:42:51 69° E 22:47:12 10° NNE
ATLAS 3B R/B 3.0 22:36:36 10° SSW 22:44:11 64° SE 22:51:33 10° NE
Cosmos 1943 Rocket 2.2 22:40:12 10° NNW 22:45:47 87° ENE 22:50:34 14° SSE
CARTOSAT-1 3.9 22:42:24 14° SE 22:45:57 54° ENE 22:50:12 10° N
Spot 4 4.4 22:43:13 14° SE 22:47:08 47° ENE 22:51:44 10° N
SPOT 5 4.3 22:43:31 10° SSW 22:47:19 29° W 22:51:07 10° NW
Cosmos 1346 Rocket 2.8 22:46:31 10° SSW 22:50:25 82° WNW 22:54:24 10° N
Terra 2.0 22:49:14 15° SSE 22:53:08 63° ENE 22:57:51 10° N
Cosmos 1943 3.3 22:48:30 10° SSW 22:54:11 83° WNW 22:59:57 10° NNE
SL-27 R/B 3.2 22:53:31 18° SSE 22:55:27 32° ESE 22:58:29 10° NE
Cosmos 1656 Rocket 4.1 22:50:48 10° NNW 22:56:27 58° NE 23:01:04 15° SE
DELTA 2 DEB (DPAF) 4.3 22:54:15 13° S 22:58:14 73° WSW 23:02:45 10° NNW
Cosmos 1842 3.4 22:55:37 14° S 22:58:51 59° E 23:02:43 10° NNE
Lacrosse 5 3.3 22:54:23 10° WNW 22:59:09 38° N 23:03:54 10° ENE
USA 234 3.7 22:53:50 14° SSE 22:59:20 52° SW 23:05:44 10° WNW
Cosmos 1825 Rocket 4.4 22:55:04 10° SSW 22:59:24 51° WNW 23:03:45 10° N
Cosmos 407 Rocket 3.5 22:58:03 10° SSW 23:03:19 89° WNW 23:08:34 10° NNE
COSMOS 2455 3.7 23:02:40 10° SW 23:08:34 54° NW 23:14:29 10° NNE
Cosmos 1842 Rocket 3.8 23:04:43 10° N 23:09:03 56° ENE 23:11:57 20° SSE
Cosmos 1766 4.4 23:14:35 10° NNW 23:18:20 39° W 23:21:47 12° SSW
Aureole 2 4.2 23:16:02 10° NNW 23:19:06 60° ENE 23:20:26 28° SE
Meteor 1-21 4.5 23:13:25 10° SSW 23:19:13 77° WNW 23:25:05 10° N
Cosmos 1758 3.5 23:15:37 10° NNW 23:19:45 76° W 23:22:34 20° S
CZ-4B R/B 4.1 23:19:00 10° E 23:20:36 13° ENE 23:22:13 10° NNE
IGS 5A 3.5 23:18:28 20° S 23:21:19 80° WSW 23:25:30 10° NNW
Cosmos 1900 4.5 23:18:05 10° SW 23:23:15 85° NW 23:28:25 10° NE
Cosmos 1954 Rocket 4.0 23:18:33 10° SSW 23:23:52 83° ESE 23:29:12 10° NNE
ARGOS 4.3 23:18:50 10° SSW 23:23:53 39° W 23:28:58 10° NNW
Cosmos 2208 Rocket 4.0 23:20:25 10° NNW 23:25:37 79° WSW 23:29:08 21° SSE
Cosmos 2084 4.2 23:22:41 10° WNW 23:26:33 39° SW 23:28:52 21° S
USA 238 DEB 3.9 23:20:03 10° SSW 23:26:53 54° ESE 23:33:43 10° NE
USA 238 3.9 23:20:09 10° SSW 23:26:59 53° ESE 23:33:48 10° NE
Lacrosse 4 Rocket 2.1 23:26:41 10° SW 23:30:40 53° NW 23:34:45 10° NNE
Cosmos 2369 Rocket 4.2 23:28:28 10° NW 23:32:24 20° W 23:36:19 10° SW
SL-8 R/B 4.1 23:28:57 10° W 23:33:35 46° SSW 23:36:12 23° SE
H-2A R/B 4.4 23:33:06 10° ENE 23:34:44 12° E 23:35:29 12° ESE
Cosmos 1092 Rocket 4.2 23:31:43 19° SSE 23:36:14 61° E 23:42:24 10° NNE
Meteor 2-5 Rocket 4.2 23:36:45 22° SSE 23:40:15 46° E 23:45:43 10° NNE
Spot 2 4.4 23:37:52 10° NNE 23:42:40 86° WNW 23:46:46 16° SSW
Cosmos 1470 2.7 23:41:40 10° N 23:45:35 78° E 23:47:24 30° SSE
Nadezhda 4 Rocket 4.0 23:40:23 16° S 23:45:37 90° E 23:52:00 10° N
Cosmos 1741 Rocket 4.0 23:41:49 19° S 23:45:39 66° ESE 23:50:57 10° NNE
Cosmos 1340 3.1 23:44:17 30° SSE 23:45:43 45° E 23:49:22 10° NNE
Cosmos 2221 3.1 23:41:52 10° N 23:46:04 46° ENE 23:48:11 25° SE
Geosat 4.0 23:41:03 10° NNE 23:46:07 88° WNW 23:51:10 10° SSW
Cosmos 1805 4.2 23:44:04 10° NNW 23:47:49 42° W 23:50:13 19° SSW
Cosmos-2242 4.4 23:44:47 10° NNW 23:48:44 33° W 23:52:01 14° SSW
NOSS 3-3 (A) 4.5 23:41:27 10° NW 23:48:45 83° NE 23:54:56 18° SE
NOSS 3-3 (C) 4.5 23:41:33 10° NW 23:48:51 82° NE 23:55:03 18° SE
ISS -3.1 23:46:44 10° W 23:50:00 71° N 23:53:16 10° ENE
Cosmos 1544 3.3 23:49:29 10° NNW 23:53:14 65° W 23:55:00 29° S
